DW9727 Weather Reports


Display with metric or nautical units.
time (UTC)temp
F
wind
direction
speed
MPH
gust
MPH
rain 1hr
in
rain 24hr
in
rain mn
in
humidity
%
barometer
mb
20260831100711 72 253 3.0 6.0 0.00 0.00 0.00 92 1007.8
20260831095710 72 270 2.0 3.0 0.00 0.00 0.00 92 1007.9
20260831094711 72 299 1.0 2.0 0.00 0.00 0.00 92 1007.8
20260831091711 71 266 2.0 3.0 0.00 0.00 0.00 91 1007.6
20260831090710 71 261 1.0 3.0 0.00 0.00 0.00 91 1007.5
20260831085711 71 298 1.0 3.0 0.00 0.00 0.00 91 1007.3
20260831084711 72 304 0.0 2.0 0.00 0.00 0.00 91 1007.2
20260831083710 72 278 0.0 2.0 0.00 0.00 0.00 91 1007.1
20260831082711 72 295 1.0 3.0 0.00 0.00 0.00 91 1007.4
20260831081711 72 311 2.0 5.0 0.00 0.00 0.00 90 1007.2
20260831080711 72 307 1.0 3.0 0.00 0.00 0.00 90 1007.1
20260831075710 72 331 0.0 0.0 0.00 0.00 0.00 90 1007.1
20260831074710 73 331 0.0 0.0 0.00 0.00 0.00 90 1007.1
20260831072711 73 182 0.0 2.0 0.00 0.00 0.00 90 1007.2
20260831071711 73 182 1.0 3.0 0.00 0.00 0.00 90 1007.2
20260831065711 73 177 1.0 3.0 0.00 0.00 0.00 90 1007.2
20260831064710 73 194 0.0 2.0 0.00 0.00 0.00 91 1007.2
20260831063710 74 194 1.0 2.0 0.00 0.00 0.00 91 1007.3
20260831062711 74 183 1.0 5.0 0.00 0.00 0.00 91 1007.0
20260831061710 74 172 3.0 5.0 0.00 0.00 0.00 91 1007.1
20260831060710 74 169 0.0 2.0 0.00 0.00 0.00 91 1006.9
20260831055711 74 169 1.0 2.0 0.00 0.00 0.00 91 1007.0
20260831054711 74 169 0.0 2.0 0.00 0.00 0.00 91 1006.7
20260831053711 74 169 0.0 1.0 0.00 0.00 0.00 90 1006.6
20260831052710 74 168 0.0 1.0 0.00 0.00 0.00 90 1006.5
20260831050710 74 168 1.0 2.0 0.00 0.00 0.00 89 1006.3
20260831045711 75 169 0.0 0.0 0.00 0.00 0.00 89 1006.4
20260831044710 75 168 0.0 0.0 0.00 0.00 0.00 88 1006.4
20260831043711 75 168 0.0 0.0 0.00 0.00 0.00 88 1006.6
20260831042711 75 168 0.0 0.0 0.00 0.00 0.00 87 1006.3
20260831040711 76 168 0.0 0.0 0.00 0.00 0.00 86 1006.3
20260831035710 76 168 0.0 0.0 0.00 0.00 0.00 86 1006.6
20260831034710 77 169 0.0 0.0 0.00 0.00 0.00 85 1006.4
20260831033710 77 169 0.0 0.0 0.00 0.00 0.00 85 1006.3
20260831032711 77 169 0.0 0.0 0.00 0.00 0.00 84 1006.6
20260831031710 78 169 0.0 0.0 0.00 0.00 0.00 84 1006.6
20260831030710 78 169 0.0 0.0 0.00 0.00 0.00 83 1006.8
20260831025711 78 169 0.0 0.0 0.00 0.00 0.00 83 1006.7
20260831024711 79 169 0.0 1.0 0.00 0.00 0.00 83 1006.9
20260831023710 79 169 1.0 2.0 0.00 0.00 0.00 83 1006.5
20260831022711 79 169 2.0 3.0 0.00 0.00 0.00 82 1006.7
20260831021711 79 271 0.0 0.0 0.00 0.00 0.00 80 1006.7
20260831015711 81 271 1.0 1.0 0.00 0.00 0.00 79 1006.3
20260831014710 81 270 1.0 1.0 0.00 0.00 0.00 78 1005.9
20260831013710 82 270 1.0 2.0 0.00 0.00 0.00 78 1006.1
20260831012711 82 270 1.0 2.0 0.00 0.00 0.00 77 1006.2
20260831011710 83 270 1.0 2.0 0.00 0.00 0.00 76 1006.0
20260831010710 84 270 1.0 2.0 0.00 0.00 0.00 75 1006.0
20260831005710 85 265 2.0 3.0 0.00 0.00 0.00 73 1006.0
20260831004711 86 286 1.0 2.0 0.00 0.00 0.00 71 1005.9
20260831003711 86 215 1.0 5.0 0.00 0.00 0.00 70 1006.0
20260831002710 87 217 3.0 6.0 0.00 0.00 0.00 69 1006.0
20260831001710 87 199 3.0 7.0 0.00 0.00 0.00 68 1006.0
20260831000710 88 203 5.0 8.0 0.00 0.00 0.00 67 1005.9
20260830235711 88 205 5.0 9.0 0.00 0.00 0.00 67 1006.0
20260830234710 88 210 5.0 12.0 0.00 0.00 0.00 66 1006.1
20260830233711 88 207 5.0 9.0 0.00 0.00 0.00 66 1006.1
20260830232711 88 216 5.0 8.0 0.00 0.00 0.00 65 1006.1
20260830231711 89 206 5.0 15.0 0.00 0.00 0.00 65 1005.9
20260830230710 90 193 6.0 13.0 0.00 0.00 0.00 65 1005.9
20260830225711 90 184 7.0 14.0 0.00 0.00 0.00 64 1005.9
20260830224710 90 173 9.0 14.0 0.00 0.00 0.00 62 1005.9
20260830223710 90 217 7.0 15.0 0.00 0.00 0.00 63 1005.8
20260830222711 90 175 9.0 14.0 0.00 0.00 0.00 64 1005.3
20260830221710 91 194 9.0 15.0 0.00 0.00 0.00 62 1005.4
20260830220710 91 181 9.0 12.0 0.00 0.00 0.00 62 1005.3
20260830213711 92 213 6.0 12.0 0.00 0.00 0.00 58 1005.3
20260830212710 92 220 7.0 12.0 0.00 0.00 0.00 57 1005.3
20260830210711 92 178 7.0 12.0 0.00 0.00 0.00 57 1005.2
20260830205712 92 197 6.0 12.0 0.00 0.00 0.00 57 1005.4
20260830203711 91 182 6.0 12.0 0.00 0.00 0.00 56 1005.4
20260830202710 91 193 6.0 9.0 0.00 0.00 0.00 57 1005.4
20260830201711 90 188 7.0 12.0 0.00 0.00 0.00 57 1005.8
20260830200710 91 198 6.0 12.0 0.00 0.00 0.00 57 1005.7
20260830195711 91 219 3.0 7.0 0.00 0.00 0.00 54 1005.8
20260830194710 92 165 5.0 9.0 0.00 0.00 0.00 55 1005.6
20260830193710 91 194 2.0 9.0 0.00 0.00 0.00 59 1005.5
20260830192710 91 173 4.0 9.0 0.00 0.00 0.00 56 1005.7
20260830190710 89 213 5.0 8.0 0.00 0.00 0.00 59 1005.9
20260830185710 88 242 4.0 7.0 0.00 0.00 0.00 62 1005.7
20260830183711 88 313 6.0 9.0 0.00 0.00 0.00 61 1005.2
20260830182711 88 273 7.0 12.0 0.00 0.00 0.00 62 1005.0
20260830181711 87 294 4.0 12.0 0.00 0.00 0.00 64 1005.6
20260830180711 87 318 6.0 10.0 0.00 0.00 0.00 64 1005.7
20260830175711 87 216 5.0 12.0 0.00 0.00 0.00 59 1006.0
20260830174710 87 210 6.0 13.0 0.00 0.00 0.00 60 1006.5
20260830173711 87 199 9.0 14.0 0.00 0.00 0.00 60 1006.5
20260830172711 86 171 7.0 14.0 0.00 0.00 0.00 60 1006.5
20260830171711 86 211 7.0 12.0 0.00 0.00 0.00 60 1006.6
20260830170710 85 219 6.0 10.0 0.00 0.00 0.00 60 1006.3
20260830165711 85 214 7.0 9.0 0.00 0.00 0.00 61 1006.4
20260830164711 85 182 7.0 12.0 0.00 0.00 0.00 61 1006.2
20260830162711 84 248 6.0 10.0 0.00 0.00 0.00 62 1006.2
20260830161710 83 223 3.0 7.0 0.00 0.00 0.00 65 1006.2
20260830160711 82 222 3.0 7.0 0.00 0.00 0.00 66 1006.5
20260830154710 82 205 3.0 6.0 0.00 0.00 0.00 66 1006.1
20260830153710 81 211 2.0 8.0 0.00 0.00 0.00 68 1005.9
20260830151711 80 286 2.0 7.0 0.00 0.00 0.00 71 1006.1
20260830150711 79 319 2.0 5.0 0.00 0.00 0.00 74 1006.1
20260830144710 77 316 2.0 6.0 0.00 0.00 0.00 79 1006.2
20260830143710 77 286 2.0 5.0 0.00 0.00 0.00 77 1006.3
20260830141711 78 294 3.0 8.0 0.00 0.00 0.00 75 1006.3
20260830140710 78 315 6.0 9.0 0.00 0.00 0.00 75 1006.2
20260830135711 78 325 6.0 9.0 0.00 0.00 0.00 73 1006.4
20260830133712 77 225 3.0 9.0 0.00 0.00 0.00 69 1005.9
20260830132711 76 218 4.0 8.0 0.00 0.00 0.00 69 1005.7
20260830131711 76 190 3.0 5.0 0.00 0.00 0.00 70 1005.5
20260830125711 75 209 5.0 7.0 0.00 0.00 0.00 73 1005.4
20260830124711 75 185 3.0 7.0 0.00 0.00 0.00 74 1005.3
20260830122710 75 165 5.0 8.0 0.00 0.00 0.00 75 1005.0
20260830121710 75 171 3.0 6.0 0.00 0.00 0.00 75 1004.8
20260830120710 75 171 3.0 7.0 0.00 0.00 0.00 75 1004.7
20260830114710 76 153 3.0 7.0 0.00 0.00 0.00 75 1004.7
20260830113711 76 122 2.0 3.0 0.00 0.00 0.00 74 1004.7
20260830112710 76 92 2.0 6.0 0.00 0.00 0.00 72 1004.8
20260830110711 76 198 1.0 6.0 0.00 0.00 0.00 73 1005.1
20260830105711 76 169 4.0 13.0 0.00 0.00 0.00 73 1004.5
20260830103710 79 144 9.0 18.0 0.00 0.00 0.00 68 1004.2
20260830102711 80 152 12.0 20.0 0.00 0.00 0.00 64 1004.4
20260830101710 79 22 7.0 16.0 0.00 0.00 0.00 62 1003.8